Yakima, WA
on Thursday, January 17, 2013

Thursday
Previous Day Next Day
Daily Summary
 ActualAverageRecord
Temperature
Mean Temperature °F / °C 31°F / -1°C  
Max Temperature 29°F / -2°C 39°F / 4°C 61°F / 16°C (2011)
Min Temperature 27°F / -3°C 24°F / -4°C -18°F / -27°C (1950)
Degree Days
Heating Degree Days 37 34  
Month to date heating degree days 592 602  
Since 1 July heating degree days 2806 3265  
Cooling Degree Days 0 0  
Month to date cooling degree days 0 0  
Year to date cooling degree days 0 0  
Moisture
Dew Point 23°F / -5°C   
Average Humidity 80    
Maximum Humidity 85    
Minimum Humidity 75    
Precipitation
Precipitation T in / T cm 0.04 in / 1.02 cm 0.36 in / 0.91 cm (1999)
Month to date precipitation 0.09 0.69  
Year to date precipitation 0.09 0.69  
Snow
Snow T in / T cm 0.10 in / 0.25 cm 2.10 in / 5.33 cm (1955)
Month to date snowfall 1.1 3.5  
Year to date snowfall 1.1 3.5  
Since 1 July snowfall 15.3 16.5  
Snow Depth 0.00 in / 0.00 cm   
Wind
Wind Speed 2 mph / 3 km/h   
Max Wind Speed 13 mph / 21 km/h   
Max Gust Speed 26 mph / 42 km/h   
Visibility 5 miles / 7 kilometers   
Events     

Key: T is trace of precipitation, MM is missing value
Source: NWS Daily Summary
Time(PST)TemperatureDew PointHumidity Pressure Visibility Wind DirectionWind SpeedGust SpeedPrecipitationEvents Conditions
12:16 AM 28.4°F / -2.0°C 24.8°F / -4.0°C 86% 30.59 in / 1035.8 hPa 3.0 miles / 4.8 kilometers Calm Calm - N/A   Overcast
12:53 AM 28.0°F / -2.2°C 24.1°F / -4.4°C 85% 30.64 in / 1037.4 hPa 4.0 miles / 6.4 kilometers Calm Calm - N/A   Overcast
1:53 AM 28.0°F / -2.2°C 24.1°F / -4.4°C 85% 30.64 in / 1037.5 hPa 4.0 miles / 6.4 kilometers West 4.6 mph / 7.4 km/h - N/A   Overcast
2:22 AM 28.4°F / -2.0°C 24.8°F / -4.0°C 86% 30.59 in / 1035.8 hPa 3.0 miles / 4.8 kilometers WSW 3.5 mph / 5.6 km/h - N/A   Overcast
2:53 AM 28.0°F / -2.2°C 24.1°F / -4.4°C 85% 30.64 in / 1037.6 hPa 3.0 miles / 4.8 kilometers Calm Calm - N/A   Overcast
3:53 AM 28.0°F / -2.2°C 24.1°F / -4.4°C 85% 30.63 in / 1037.0 hPa 5.0 miles / 8.0 kilometers Calm Calm - N/A   Overcast
4:53 AM 28.0°F / -2.2°C 23.0°F / -5.0°C 81% 30.62 in / 1036.7 hPa 5.0 miles / 8.0 kilometers Calm Calm - N/A   Haze
5:53 AM 28.0°F / -2.2°C 23.0°F / -5.0°C 81% 30.61 in / 1036.5 hPa 5.0 miles / 8.0 kilometers Calm Calm - N/A   Haze
6:53 AM 28.0°F / -2.2°C 24.1°F / -4.4°C 85% 30.62 in / 1036.7 hPa 5.0 miles / 8.0 kilometers Calm Calm - N/A   Overcast
7:53 AM 28.0°F / -2.2°C 23.0°F / -5.0°C 81% 30.63 in / 1037.0 hPa 5.0 miles / 8.0 kilometers South 3.5 mph / 5.6 km/h - N/A   Haze
8:53 AM 28.0°F / -2.2°C 23.0°F / -5.0°C 81% 30.63 in / 1037.3 hPa 3.0 miles / 4.8 kilometers Calm Calm - N/A   Haze
9:00 AM 28.4°F / -2.0°C 24.8°F / -4.0°C 86% 30.59 in / 1035.8 hPa 2.5 miles / 4.0 kilometers Calm Calm - N/A   Overcast
9:53 AM 28.0°F / -2.2°C 24.1°F / -4.4°C 85% 30.64 in / 1037.4 hPa 2.5 miles / 4.0 kilometers Calm Calm - N/A   Overcast
10:53 AM 28.0°F / -2.2°C 23.0°F / -5.0°C 81% 30.62 in / 1036.9 hPa 3.0 miles / 4.8 kilometers Calm Calm - N/A   Haze
11:53 AM 28.0°F / -2.2°C 24.1°F / -4.4°C 85% 30.59 in / 1035.9 hPa 3.0 miles / 4.8 kilometers Calm Calm - N/A   Overcast
12:53 PM 28.0°F / -2.2°C 23.0°F / -5.0°C 81% 30.57 in / 1035.1 hPa 3.0 miles / 4.8 kilometers Calm Calm - N/A   Haze
1:53 PM 28.0°F / -2.2°C 23.0°F / -5.0°C 81% 30.55 in / 1034.3 hPa 6.0 miles / 9.7 kilometers SSW 3.5 mph / 5.6 km/h - N/A   Haze
2:53 PM 28.0°F / -2.2°C 23.0°F / -5.0°C 81% 30.53 in / 1033.7 hPa 6.0 miles / 9.7 kilometers South 3.5 mph / 5.6 km/h - N/A   Haze
3:53 PM 28.0°F / -2.2°C 24.1°F / -4.4°C 85% 30.53 in / 1033.6 hPa 5.0 miles / 8.0 kilometers Calm Calm - N/A   Overcast
4:53 PM 28.0°F / -2.2°C 23.0°F / -5.0°C 81% 30.53 in / 1033.8 hPa 6.0 miles / 9.7 kilometers SW 3.5 mph / 5.6 km/h - N/A   Haze
5:53 PM 28.0°F / -2.2°C 23.0°F / -5.0°C 81% 30.53 in / 1033.8 hPa 6.0 miles / 9.7 kilometers SW 5.8 mph / 9.3 km/h - N/A   Haze
6:53 PM 28.0°F / -2.2°C 23.0°F / -5.0°C 81% 30.52 in / 1033.5 hPa 6.0 miles / 9.7 kilometers West 3.5 mph / 5.6 km/h - N/A   Haze
7:53 PM 28.0°F / -2.2°C 23.0°F / -5.0°C 81% 30.52 in / 1033.3 hPa 6.0 miles / 9.7 kilometers WSW 4.6 mph / 7.4 km/h - 0.00 in / 0.0 cm   Haze
8:53 PM 28.0°F / -2.2°C 21.9°F / -5.6°C 78% 30.50 in / 1032.8 hPa 7.0 miles / 11.3 kilometers WSW 4.6 mph / 7.4 km/h - N/A   Overcast
9:53 PM 28.0°F / -2.2°C 23.0°F / -5.0°C 81% 30.47 in / 1031.7 hPa 6.0 miles / 9.7 kilometers WSW 3.5 mph / 5.6 km/h - N/A   Haze
10:16 PM 28.4°F / -2.0°C 23.0°F / -5.0°C 80% 30.41 in / 1029.7 hPa 5.0 miles / 8.0 kilometers WSW 3.5 mph / 5.6 km/h - N/A   Haze
10:45 PM 28.4°F / -2.0°C 23.0°F / -5.0°C 80% 30.40 in / 1029.3 hPa 5.0 miles / 8.0 kilometers Calm Calm - N/A   Haze
10:53 PM 28.0°F / -2.2°C 23.0°F / -5.0°C 81% 30.45 in / 1031.0 hPa 5.0 miles / 8.0 kilometers Calm Calm - N/A   Haze
11:53 PM 28.0°F / -2.2°C 23.0°F / -5.0°C 81% 30.45 in / 1030.9 hPa 7.0 miles / 11.3 kilometers Calm Calm - N/A   Overcast
Moon Phase
Jan. 17 Jan. 18 Jan. 26 Feb. 03 Feb. 10
Sunrise:07:40 AM (PST) Moon Rise:10:23 AM (PST)1/17
Sunset:04:44 PM (PST) Moon Set:No Moon Set/

Copyright © 2014 The Weather Underground, Inc.